Date String (YYYY-MM-DD hh:mm:ss) UTC,Instrument flags,Ambient pressure (hPa),Sample flow (lpm),Bypass flow (lpm),Sample temperature (°C),Ambient temperature (°C),ASC tube jacket temperature (°C),LED temperature (°C),Box temperature (°C),Sample RH (%),Span deviation,Mass concentration (μg/m³),Mass concentration (μg/m³),Mass concentration (μg/m³)
DateTimeUTC,F1_M11,P_M11,Q1_M11,Q2_M11,T1_M11,T2_M11,T3_M11,T4_M11,T5_M11,U1_M11,ZSPAN_M11,X0_M11,X2_M11,X1_M11
2021-10-06 18:00:00,,0826.2,5.00,0.00,30.0,29.2,00.0,38.9,31.9,16.2,0002.4,0021.34,0005.64,0004.41
2021-10-06 18:01:00,,0826.2,5.00,0.00,30.0,27.8,00.0,38.9,31.5,16.0,0001.3,0021.68,0005.64,0004.44
2021-10-06 18:02:00,,0826.2,5.00,0.00,29.8,26.1,00.0,38.9,31.1,16.1,0001.4,0020.30,0005.69,0004.46
2021-10-06 18:03:00,,0826.2,5.01,0.00,29.7,26.2,00.0,38.9,31.1,16.4,0001.5,0019.00,0005.77,0004.49
2021-10-06 18:04:00,,0826.1,5.01,0.00,29.6,26.6,00.0,38.8,31.1,16.5,0001.1,0018.12,0005.82,0004.50
2021-10-06 18:05:00,,0826.2,5.00,0.00,29.6,27.1,00.0,38.8,31.2,16.5,0000.6,0018.36,0005.89,0004.54
2021-10-06 18:06:00,,0826.2,5.00,0.00,29.6,27.5,00.0,38.8,31.3,16.7,0000.6,0019.07,0005.84,0004.55
2021-10-06 18:07:00,,0826.2,5.00,0.00,29.7,27.9,00.0,38.8,31.4,16.5,0001.0,0018.15,0005.84,0004.56
2021-10-06 18:08:00,,0826.2,5.00,0.00,29.7,28.2,00.0,38.8,31.5,16.5,0000.7,0017.39,0005.89,0004.58
2021-10-06 18:09:00,,0826.2,5.01,0.00,29.7,28.4,00.0,38.8,31.5,16.7,0001.0,0017.70,0005.96,0004.59
2021-10-06 18:10:00,,0826.2,5.01,0.00,29.8,28.7,00.0,38.8,31.6,16.5,0000.8,0016.21,0005.97,0004.60
2021-10-06 18:11:00,,0826.2,5.00,0.00,29.8,28.5,00.0,38.8,31.6,16.5,0000.7,0015.89,0005.96,0004.63
2021-10-06 18:12:00,,0826.2,4.99,0.00,29.7,26.7,00.0,38.8,31.1,16.3,0001.9,0015.68,0005.99,0004.65
2021-10-06 18:13:00,,0826.2,5.00,0.00,29.6,25.7,00.0,38.7,30.8,16.5,0001.9,0016.68,0006.01,0004.66
2021-10-06 18:14:00,,0826.1,4.99,0.00,29.5,26.0,00.0,38.7,30.9,16.8,0001.6,0016.82,0005.98,0004.66
2021-10-06 18:15:00,,0826.0,5.00,0.00,29.4,26.5,00.0,38.7,31.0,16.7,0001.8,0017.89,0005.99,0004.67
2021-10-06 18:16:00,,0826.0,5.01,0.00,29.4,27.0,00.0,38.6,31.0,16.8,0002.0,0018.23,0006.00,0004.69
2021-10-06 18:17:00,,0826.0,5.00,0.00,29.4,27.4,00.0,38.6,31.1,16.9,0002.4,0017.32,0006.07,0004.71
2021-10-06 18:18:00,,0826.0,5.00,0.00,29.4,27.7,00.0,38.6,31.2,16.7,0002.4,0017.60,0006.08,0004.73
2021-10-06 18:19:00,,0826.0,5.01,0.00,29.5,28.0,00.0,38.6,31.3,16.6,0002.5,0018.58,0006.09,0004.75
2021-10-06 18:20:00,,0826.0,5.01,0.00,29.5,28.3,00.0,38.6,31.4,16.7,0002.3,0018.77,0006.05,0004.76
2021-10-06 18:21:00,,0825.9,5.00,0.00,29.6,28.5,00.0,38.6,31.5,16.8,0001.9,0019.24,0006.00,0004.78
2021-10-06 18:22:00,,0826.0,5.00,0.00,29.6,28.6,00.0,38.6,31.5,16.9,0002.2,0018.98,0006.02,0004.77
2021-10-06 18:23:00,,0825.9,5.00,0.00,29.7,28.8,00.0,38.6,31.6,16.8,0001.8,0018.87,0006.03,0004.76
2021-10-06 18:24:00,,0825.9,5.00,0.00,29.7,28.9,00.0,38.6,31.6,16.7,0000.3,0018.03,0006.03,0004.77
2021-10-06 18:25:00,,0825.9,4.99,0.00,29.8,29.0,00.0,38.7,31.7,16.6,0000.0,0018.11,0006.08,0004.79
2021-10-06 18:26:00,,0825.9,5.01,0.00,29.8,29.1,00.0,38.7,31.7,16.7,0000.0,0017.36,0006.09,0004.81
2021-10-06 18:27:00,,0825.9,5.00,0.00,29.9,28.8,00.0,38.7,31.7,17.0,0000.0,0018.73,0006.11,0004.82
2021-10-06 18:28:00,,0825.9,5.00,0.00,29.8,27.0,00.0,38.7,31.2,16.9,0000.0,0019.58,0006.12,0004.83
2021-10-06 18:29:00,,0825.8,4.99,0.00,29.6,25.9,00.0,38.7,30.9,16.9,0000.0,0019.43,0006.15,0004.88
2021-10-06 18:30:00,,0825.8,5.01,0.00,29.5,26.2,00.0,38.7,31.0,16.8,0000.4,0018.73,0006.23,0004.92
2021-10-06 18:31:00,,0826.0,4.99,0.00,29.5,26.6,00.0,38.6,31.0,17.1,0002.6,0018.45,0006.32,0004.94
2021-10-06 18:32:00,,0826.2,5.01,0.00,29.5,27.1,00.0,38.6,31.1,17.0,0002.8,0018.69,0006.42,0004.97
2021-10-06 18:33:00,,0825.9,4.98,0.00,29.5,27.5,00.0,38.6,31.2,16.9,0002.5,0020.20,0006.48,0005.03
2021-10-06 18:34:00,,0826.0,5.00,0.00,29.5,27.9,00.0,38.6,31.3,17.0,0002.3,0020.61,0006.46,0005.06
2021-10-06 18:35:00,,0826.0,5.00,0.00,29.6,28.2,00.0,38.6,31.4,16.8,0002.4,0021.64,0006.49,0005.09
2021-10-06 18:36:00,,0825.9,5.00,0.00,29.6,28.5,00.0,38.6,31.5,16.7,0002.1,0021.86,0006.53,0005.11
2021-10-06 18:37:00,,0825.7,5.00,0.00,29.7,28.7,00.0,38.6,31.6,16.7,0002.3,0022.54,0006.56,0005.14
2021-10-06 18:38:00,,0825.8,5.01,0.00,29.7,28.9,00.0,38.6,31.6,16.6,0002.3,0021.32,0006.53,0005.16
2021-10-06 18:39:00,,0825.7,4.99,0.00,29.8,28.2,00.0,38.7,31.5,16.7,0002.1,0020.46,0006.56,0005.18
2021-10-06 18:40:00,,0825.6,4.99,0.00,29.6,26.2,00.0,38.6,30.9,16.9,0001.3,0020.84,0006.61,0005.17
2021-10-06 18:41:00,,0825.7,5.01,0.00,29.4,25.7,00.0,38.6,30.7,17.1,0001.0,0021.32,0006.62,0005.17
2021-10-06 18:42:00,,0825.6,5.00,0.00,29.4,26.1,00.0,38.6,30.8,17.2,0000.4,0021.96,0006.61,0005.20
2021-10-06 18:43:00,,0825.6,5.00,0.00,29.3,26.5,00.0,38.5,30.9,17.5,-000.1,0022.90,0006.54,0005.20
2021-10-06 18:44:00,,0825.6,5.01,0.00,29.3,27.0,00.0,38.5,31.0,17.7,-000.1,0021.76,0006.56,0005.17
2021-10-06 18:45:00,,0825.7,5.00,0.00,29.3,27.4,00.0,38.5,31.1,17.6,0000.4,0021.80,0006.62,0005.17
2021-10-06 18:46:00,,0825.6,5.00,0.00,29.4,27.8,00.0,38.5,31.2,17.5,0000.3,0021.75,0006.69,0005.17
2021-10-06 18:47:00,,0825.6,4.99,0.00,29.4,28.0,00.0,38.5,31.3,17.5,0000.2,0022.69,0006.69,0005.17
2021-10-06 18:48:00,,0825.6,5.01,0.00,29.5,28.3,00.0,38.5,31.4,17.4,0000.1,0022.44,0006.70,0005.18
2021-10-06 18:49:00,,0825.6,5.01,0.00,29.5,28.5,00.0,38.5,31.4,17.2,-000.2,0022.11,0006.77,0005.21
2021-10-06 18:50:00,,0825.6,5.00,0.00,29.6,28.6,00.0,38.5,31.5,17.2,-000.0,0021.83,0006.85,0005.26
2021-10-06 18:51:00,,0825.6,4.99,0.00,29.6,28.7,00.0,38.5,31.5,17.1,0000.7,0021.81,0006.85,0005.30
2021-10-06 18:52:00,,0825.5,5.01,0.00,29.7,28.9,00.0,38.6,31.6,17.3,0001.0,0021.71,0006.87,0005.34
2021-10-06 18:53:00,,0825.5,4.99,0.00,29.7,29.0,00.0,38.6,31.7,17.4,0001.6,0021.74,0006.85,0005.36
2021-10-06 18:54:00,,0825.5,5.00,0.00,29.8,29.1,00.0,38.6,31.7,17.3,0001.9,0021.55,0006.91,0005.40
2021-10-06 18:55:00,,0825.5,5.00,0.00,29.9,29.2,00.0,38.7,31.8,17.1,0001.9,0022.11,0006.92,0005.45
2021-10-06 18:56:00,,0825.5,4.99,0.00,29.9,29.1,00.0,38.7,31.8,17.1,0001.7,0022.01,0006.94,0005.50
2021-10-06 18:57:00,,0825.5,5.00,0.00,29.9,27.7,00.0,38.7,31.4,17.1,0001.7,0021.59,0007.02,0005.56
2021-10-06 18:58:00,,0825.5,5.01,0.00,29.7,26.1,00.0,38.7,30.9,17.1,0002.3,0021.06,0007.08,0005.61
2021-10-06 18:59:00,,0825.5,4.99,0.00,29.6,26.1,00.0,38.7,30.9,17.2,0002.5,0021.53,0007.12,0005.66
